Location: Newark
(53.3333°N, 83.7500°E)
Time: 19:53:47
(UTC+00:00)

Vanguard 2 - All Passes

Search period start: 17 November 2019 00:00
Search period end: 27 November 2019 00:00
Orbit: 554 x 2937 km, 32.9° (Epoch: 17 November)

Date Brightness Start Highest point End Pass type
(mag) Time Alt. Az. Time Alt. Az. Time Alt. Az.
18 Nov - 04:18:36 10° S 04:19:09 10° S 04:19:41 10° S daylight
19 Nov - 02:28:29 10° S 02:29:09 10° S 02:29:47 10° SSE daylight
19 Nov - 04:34:52 10° SSW 04:36:40 11° S 04:38:18 10° S daylight
20 Nov - 02:43:08 10° SSW 02:46:44 13° S 02:49:47 10° SSE daylight
20 Nov - 04:52:09 10° SSW 04:54:09 11° SSW 04:55:56 10° S daylight
21 Nov - 00:55:31 10° SSE 00:56:18 10° SSE 00:57:02 10° SSE visible
21 Nov - 02:59:33 10° SSW 03:04:17 15° S 03:08:07 10° SSE daylight
21 Nov - 05:10:03 10° SSW 05:11:35 11° SSW 05:12:59 10° S daylight
22 Nov - 01:08:57 10° S 01:13:52 13° SSE 01:17:58 10° SE visible
22 Nov - 03:16:29 10° SW 03:21:50 16° S 03:26:01 10° SSE daylight
23 Nov - 01:24:47 10° SSW 01:31:26 17° S 01:36:39 10° SE visible
23 Nov - 03:33:44 10° SW 03:39:20 17° S 03:43:40 10° SSE daylight
23 Nov - 23:35:54 10° S 23:40:32 12° SSE 23:44:37 10° SE visible
24 Nov - 01:41:17 10° SSW 01:48:59 19° S 01:54:49 10° SE daylight
24 Nov - 03:51:14 10° SW 03:56:47 17° SSW 04:01:05 10° SSE daylight
24 Nov - 23:50:38 10° SSW 23:58:04 16° SSE 00:04:08 10° SE visible
25 Nov - 01:58:10 10° SW 02:06:33 21° S 02:12:43 10° SE daylight
25 Nov - 04:09:00 10° SW 04:14:11 16° SSW 04:18:16 10° SSE daylight
26 Nov - 00:06:29 10° SSW 00:15:36 20° SSE 00:22:42 10° SE visible
26 Nov - 02:15:20 10° SW 02:24:03 22° S 02:30:24 10° SE daylight
26 Nov - 04:27:04 10° SW 04:31:30 14° SSW 04:35:08 10° S daylight
26 Nov - 22:18:01 10° S 22:24:18 13° SSE 22:29:53 10° SE visible
